Miscellaneous Local Product
Issued by NWS Hastings, NE

Home | Current Version | Previous Version | Text Only | Print | Product List | Glossary Off
Versions: 1 2 3 4 5 6 7 8 9 10 11 12 13 14 15 16 17 18 19 20 21 22 23 24 25 26 27 28 29 30 31 32 33 34 35 36 37 38 39 40 41 42 43 44 45 46 47 48 49 50

029
AXUS43 KGID 081302
MISGRI

GID CWA HOURLY WEATHER ROUNDUP
NATIONAL WEATHER SERVICE HASTINGS NE
700 AM CST MON FEB 08 2016

NOTE: "FAIR" INDICATES FEW OR NO CLOUDS BELOW 12,000 FEET WITH NO
SIGNIFICANT WEATHER AND/OR OBSTRUCTIONS TO VISIBILITY.

...SOUTH CENTRAL NEBRASKA...

CITY           SKY/WX    TMP DP  RH WIND       PRES   REMARKS
GRAND ISLAND   PTCLDY    27  16  63 NW25G36   30.16R WCI  12
HASTINGS       CLEAR     26  16  65 NW17      30.15R WCI  13
ORD            CLEAR     26  16  65 NW28G39   30.17R WCI  10
YORK           FLURRIES  28  21  74 N18G25    30.11R WCI  16
AURORA         CLOUDY    28  18  66 N33G43    30.13R WCI  12
LEXINGTON      CLEAR     28  16  61 NW25G31   30.22R WCI  13
HOLDREGE       CLEAR     27  16  62 NW25G32   30.19R WCI  12
HEBRON         CLOUDY    30  20  66 NW17G24   30.15R WCI  18

...NEBRASKA PANHANDLE...

CITY           SKY/WX    TMP DP  RH WIND       PRES   REMARKS
CHADRON        CLOUDY    27  13  55 NW14      30.37R WCI  16
ALLIANCE       CLOUDY    23   9  55 NW18      30.31S WCI   9
SCOTTSBLUFF    CLOUDY    21  11  65 W13       30.37R WCI   9
SIDNEY         CLOUDY    21  10  62 NW16      30.32S WCI   7

...WESTERN AND NORTH CENTRAL NEBRASKA...

CITY           SKY/WX    TMP DP  RH WIND       PRES   REMARKS
VALENTINE      CLEAR     24  15  68 NW18G25   30.26R WCI  10
AINSWORTH      CLEAR     25  15  66 NW25G31   30.22S WCI   9
ONEILL         MOCLDY    27  17  67 NW28G39   30.15R WCI  11
BROKEN BOW     CLEAR     26  15  63 NW24G36   30.19R WCI  11
IMPERIAL       CLEAR     24  11  57 NW16      30.32R WCI  11
NORTH PLATTE   CLEAR     23  12  62 NW20      30.27R WCI   8
MCCOOK         CLEAR     25  13  60 NW20      30.30R WCI  11

...EASTERN NEBRASKA...

CITY           SKY/WX    TMP DP  RH WIND       PRES   REMARKS
NORFOLK        CLOUDY    28  17  63 NW30G39   30.07R WCI  12
SO SIOUX CITY  CLOUDY    26  16  65 N30G41    30.03S WCI  10
TEKAMAH        MIX PCPN  28  19  69 NW33G43   30.05R WCI  11
COLUMBUS       CLOUDY    28  12  50 NW25G33   30.10S WCI  14
ALBION         CLOUDY    28  17  64 NW24G36   30.11R WCI  13
OMAHA EPPLEY   FLURRIES  27  19  72 NW25G35   30.02R WCI  12
OFFUTT AFB     FLURRIES  28  19  67 NW23      30.02R WCI  14
MILLARD        CLOUDY    29  19  67 NW17G28   30.04R WCI  17
LINCOLN        CLOUDY    29  18  63 N24G41    30.09R WCI  15
NEBRASKA CITY  CLOUDY    29  19  66 N25G40    30.03S WCI  15
BEATRICE       CLOUDY    30  20  65 N25G31    30.10R WCI  16
FALLS CITY     FLURRIES  31  19  61 NW21G36   30.03R WCI  18

...NORTHERN KANSAS...

CITY           SKY/WX    TMP DP  RH WIND       PRES   REMARKS
GOODLAND       CLOUDY    21  10  62 NW18      30.32R WCI   6
HILL CITY      CLEAR     28  14  55 NW23G31   30.29R WCI  14
NORTON         SUNNY     25  12  58 W20       30.26  WCI  11
PHILLIPSBURG   CLEAR     28  16  59 W25G32    30.24R WCI  14
SMITH CENTER   CLEAR     28  18  64 NW20      30.22R WCI  15
BELOIT         CLEAR     27  18  69 W8        30.20R WCI  18
HAYS           CLEAR     28   9  43 NW23G35   30.25R WCI  14
RUSSELL        CLEAR     29  16  58 NW29G36   30.23R WCI  14
CONCORDIA      PTCLDY    31  17  56 NW18G25   30.16R WCI  19
SALINA         CLEAR     31  17  56 NW22      30.18S WCI  18
TOPEKA         LGT SNOW  32  25  75 N16       30.07R WCI  21



USA.gov is the U.S. government's official web portal to all federal, state and local government web resources and services.